H1 CPF 1 NER 2017 4 1 9 5911 glonass101 H2 0606203 9101 29672 2017 4 1 0 0 0 2017 4 4 23 45 0 900 1 1 0 0 0 H9 10 0 57844 0.00000 0 -10549182.694 23043174.391 -3239521.269 10 0 57844 900.00000 0 -10456496.395 23308430.157 -17868.875 10 0 57844 1800.00000 0 -10196031.604 23199375.527 3204124.621 10 0 57844 2700.00000 0 -9821951.529 22698972.195 6364118.040 10 0 57844 3600.00000 0 -9391496.706 21803377.987 9400910.537 10 0 57844 4500.00000 0 -8962372.450 20522253.774 12255618.074 10 0 57844 5400.00000 0 -8590122.773 18878524.895 14872810.250 10 0 57844 6300.00000 0 -8325600.988 16907604.447 17201585.901 10 0 57844 7200.00000 0 -8212643.708 14656108.335 19196566.527 10 0 57844 8100.00000 0 -8286046.974 12180113.045 20818788.063 10 0 57844 9000.00000 0 -8569931.170 9543026.267 22036473.061 10 0 57844 9900.00000 0 -9076565.511 6813157.118 22825667.279 10 0 57844 10800.00000 0 -9805704.029 4061085.511 23170727.135 10 0 57844 11700.00000 0 -10744463.672 1356939.248 23064647.060 10 0 57844 12600.00000 0 -11867752.377 -1232308.068 22509218.701 10 0 57844 13500.00000 0 -13139231.660 -3645405.529 21515017.215 10 0 57844 14400.00000 0 -14512775.325 -5829152.055 20101213.175 10 0 57844 15300.00000 0 -15934364.390 -7740383.995 18295212.305 10 0 57844 16200.00000 0 -17344339.141 -9347539.066 16132128.849 10 0 57844 17100.00000 0 -18679913.390 -10631730.310 13654102.084 10 0 57844 18000.00000 0 -19877844.020 -11587284.379 10909469.135 10 0 57844 18900.00000 0 -20877141.708 -12221721.636 7951810.614 10 0 57844 19800.00000 0 -21621706.462 -12555179.617 4838888.671 10 0 57844 20700.00000 0 -22062774.511 -12619305.534 1631499.804 10 0 57844 21600.00000 0 -22161071.206 -12455666.730 -1607733.262 10 0 57844 22500.00000 0 -21888577.312 -12113748.897 -4815604.869 10 0 57844 23400.00000 0 -21229833.077 -11648629.614 -7929578.309 10 0 57844 24300.00000 0 -20182724.672 -11118428.671 -10889019.878 10 0 57844 25200.00000 0 -18758720.241 -10581645.773 -13636389.400 10 0 57844 26100.00000 0 -16982546.652 -10094500.423 -16118362.902 10 0 57844 27000.00000 0 -14891322.066 -9708387.941 -18286865.208 10 0 57844 27900.00000 0 -12533182.381 -9467559.686 -20099992.738 10 0 57844 28800.00000 0 -9965460.826 -9407125.121 -21522809.543 10 0 57844 29700.00000 0 -7252498.107 -9551458.904 -22528002.772 10 0 57844 30600.00000 0 -4463175.175 -9913078.474 -23096386.908 10 0 57844 31500.00000 0 -1668271.500 -10492037.355 -23217249.207 10 0 57844 32400.00000 0 1062242.117 -11275857.674 -22888531.964 10 0 57844 33300.00000 0 3661865.321 -12240002.942 -22116850.143 10 0 57844 34200.00000 0 6070076.246 -13348869.936 -20917345.716 10 0 57844 35100.00000 0 8234584.518 -14557257.393 -19313382.796 10 0 57844 36000.00000 0 10113238.758 -15812249.958 -17336090.058 10 0 57844 36900.00000 0 11675512.295 -17055439.121 -15023759.440 10 0 57844 37800.00000 0 12903508.218 -18225389.277 -12421112.281 10 0 57844 38700.00000 0 13792444.317 -19260247.227 -9578446.115 10 0 57844 39600.00000 0 14350599.446 -20100387.487 -6550677.461 10 0 57844 40500.00000 0 14598724.752 -20690984.258 -3396297.558 10 0 57844 41400.00000 0 14568944.823 -20984403.585 -176259.636 10 0 57844 42300.00000 0 14303194.618 -20942316.331 3047182.221 10 0 57844 43200.00000 0 13851257.109 -20537443.618 6211661.679 10 0 57844 44100.00000 0 13268483.045 -19754861.086 9255894.472 10 0 57844 45000.00000 0 12613287.601 -18592806.155 12120856.240 10 0 57844 45900.00000 0 11944528.176 -17062952.610 14750921.807 10 0 57844 46800.00000 0 11318872.945 -15190138.588 17094944.241 10 0 57844 47700.00000 0 10788270.603 -13011556.612 19107252.764 10 0 57844 48600.00000 0 10397628.038 -10575436.551 20748549.909 10 0 57844 49500.00000 0 10182794.483 -7939273.542 21986689.934 10 0 57844 50400.00000 0 10168938.389 -5167672.238 22797322.389 10 0 57844 51300.00000 0 10369387.209 -2329895.012 23164387.157 10 0 57844 52200.00000 0 10784981.134 502785.373 23080449.891 10 0 57844 53100.00000 0 11403970.415 3259819.158 22546869.633 10 0 57844 54000.00000 0 12202462.898 5874085.509 21573793.685 10 0 57844 54900.00000 0 13145405.025 8284457.797 20179978.096 10 0 57844 55800.00000 0 14188056.529 10438120.345 18392435.778 10 0 57844 56700.00000 0 15277897.548 12292538.845 16245917.862 10 0 57844 57600.00000 0 16356887.883 13817000.925 13782237.640 10 0 57844 58500.00000 0 17363982.368 14993661.418 11049450.048 10 0 57844 59400.00000 0 18237794.785 15818048.054 8100903.081 10 0 57844 60300.00000 0 18919295.813 16299006.582 4994180.570 10 0 57844 61200.00000 0 19354428.765 16458088.509 1789958.570 10 0 57844 62100.00000 0 19496530.233 16328408.990 -1449200.412 10 0 57844 63000.00000 0 19308451.265 15953025.443 -4660089.640 10 0 57844 63900.00000 0 18764287.867 15382908.093 -7780110.248 10 0 57844 64800.00000 0 17850646.850 14674591.289 -10748506.775 10 0 57844 65700.00000 0 16567393.375 13887607.702 -13507560.418 10 0 57844 66600.00000 0 14927849.264 13081816.356 -16003715.543 10 0 57844 67500.00000 0 12958434.767 12314739.203 -18188617.180 10 0 57844 68400.00000 0 10697770.252 11639019.650 -20020039.606 10 0 57844 69300.00000 0 8195277.033 11100110.341 -21462688.935 10 0 57844 70200.00000 0 5509337.200 10734286.800 -22488865.735 10 0 57844 71100.00000 0 2705090.138 10567068.997 -23078976.867 10 0 57844 72000.00000 0 -148042.038 10612115.159 -23221888.808 10 0 57844 72900.00000 0 -2978997.680 10870631.953 -22915117.969 10 0 57844 73800.00000 0 -5717778.838 11331323.552 -22164856.354 10 0 57844 74700.00000 0 -8298104.096 11970879.776 -20985833.843 10 0 57844 75600.00000 0 -10659903.476 12754981.390 -19401020.995 10 0 57844 76500.00000 0 -12751554.696 13639779.727 -17441178.801 10 0 57844 77400.00000 0 -14531770.828 14573788.500 -15144264.225 10 0 57844 78300.00000 0 -15971063.813 15500109.176 -12554702.573 10 0 57844 79200.00000 0 -17052725.459 16358897.695 -9722539.840 10 0 57844 80100.00000 0 -17773286.993 17089970.556 -6702490.214 10 0 57844 81000.00000 0 -18142439.410 17635442.486 -3552895.654 10 0 57844 81900.00000 0 -18182418.629 17942286.427 -334616.028 10 0 57844 82800.00000 0 -17926881.196 17964709.414 2890130.187 10 0 57844 83700.00000 0 -17419317.153 17666245.141 6058953.717 10 0 57844 84600.00000 0 -16711065.704 17021475.219 9110489.107 10 0 57844 85500.00000 0 -15859015.831 16017305.985 11985573.909 10 0 57845 0.00000 0 -14923087.241 14653745.816 14628390.355 10 0 57845 900.00000 0 -13963596.632 12944147.570 16987548.057 10 0 57845 1800.00000 0 -13038618.734 10914904.633 19017086.058 10 0 57845 2700.00000 0 -12201453.900 8604608.100 20677375.502 10 0 57845 3600.00000 0 -11498307.677 6062699.101 21935904.207 10 0 57845 4500.00000 0 -10966281.752 3347668.328 22767927.124 10 0 57845 5400.00000 0 -10631761.603 524875.634 23156968.916 10 0 57845 6300.00000 0 -10509270.524 -2335921.726 23095167.405 10 0 57845 7200.00000 0 -10600840.228 -5163230.569 22583449.564 10 0 57845 8100.00000 0 -10895926.556 -7886562.875 21631534.907 10 0 57845 9000.00000 0 -11371875.724 -10439142.290 20257764.533 10 0 57845 9900.00000 0 -11994923.014 -12760462.490 18488757.589 10 0 57845 10800.00000 0 -12721682.763 -14798589.632 16358900.642 10 0 57845 11700.00000 0 -13501067.046 -16512111.417 13909679.067 10 0 57845 12600.00000 0 -14276551.568 -17871649.956 11188863.265 10 0 57845 13500.00000 0 -14988691.768 -18860874.165 8249565.915 10 0 57845 14400.00000 0 -15577780.940 -19476968.876 5149189.564 10 0 57845 15300.00000 0 -15986535.611 -19730541.262 1948286.660 10 0 57845 16200.00000 0 -16162692.157 -19644969.707 -1290643.798 10 0 57845 17100.00000 0 -16061402.391 -19255224.439 -4504397.364 10 0 57845 18000.00000 0 -15647324.850 -18606212.178 -7630316.407 10 0 57845 18900.00000 0 -14896321.935 -17750717.520 -10607527.092 10 0 57845 19800.00000 0 -13796690.512 -16747030.934 -13378135.280 10 0 57845 20700.00000 0 -12349874.091 -15656366.173 -15888356.808 10 0 57845 21600.00000 0 -10570627.216 -14540178.284 -18089559.776 10 0 57845 22500.00000 0 -8486626.240 -13457496.664 -19939198.816 10 0 57845 23400.00000 0 -6137544.229 -12462386.051 -21401624.119 10 0 57845 24300.00000 0 -3573630.006 -11601641.853 -22448751.125 10 0 57845 25200.00000 0 -853851.725 -10912815.357 -23060579.898 10 0 57845 26100.00000 0 1956317.019 -10422649.802 -23225556.336 10 0 57845 27000.00000 0 4787376.502 -10145990.442 -22940770.541 10 0 57845 27900.00000 0 7568443.429 -10085211.717 -22211990.581 10 0 57845 28800.00000 0 10229948.414 -10230183.063 -21053532.771 10 0 57845 29700.00000 0 12706278.597 -10558772.719 -19487972.215 10 0 57845 30600.00000 0 14938258.309 -11037866.922 -17545699.939 10 0 57845 31500.00000 0 16875367.484 -11624861.015 -15264335.300 10 0 57845 32400.00000 0 18477608.470 -12269559.847 -12688004.630 10 0 57845 33300.00000 0 19716946.161 -12916408.359 -9866499.162 10 0 57845 34200.00000 0 20578263.508 -13506959.784 -6854327.298 10 0 57845 35100.00000 0 21059794.141 -13982479.169 -3709678.105 10 0 57845 36000.00000 0 21173014.931 -14286574.243 -493314.410 10 0 57845 36900.00000 0 20942003.128 -14367744.245 2732584.540 10 0 57845 37800.00000 0 20402284.648 -14181740.385 5905609.979 10 0 57845 38700.00000 0 19599220.864 -13693638.862 8964318.427 10 0 57845 39600.00000 0 18586000.326 -12879538.868 11849412.148 10 0 57845 40500.00000 0 17421318.345 -11727812.966 14504883.229 10 0 57845 41400.00000 0 16166840.520 -10239855.374 16879099.510 10 0 57845 42300.00000 0 14884555.616 -8430294.212 18925811.333 10 0 57845 43200.00000 0 13634128.263 -6326655.749 20605059.401 10 0 57845 44100.00000 0 12470362.347 -3968491.357 21883965.560 10 0 57845 45000.00000 0 11440881.961 -1406000.431 22737390.199 10 0 57845 45900.00000 0 10584128.061 1301796.376 23148442.379 10 0 57845 46800.00000 0 9927756.239 4089260.014 23108831.317 10 0 57845 47700.00000 0 9487504.521 6886622.075 22619050.743 10 0 57845 48600.00000 0 9266580.490 9622657.534 21688390.870 10 0 57845 49500.00000 0 9255595.184 12227430.236 20334775.992 10 0 57845 50400.00000 0 9433048.003 14634996.252 18584429.361 10 0 57845 51300.00000 0 9766343.127 16785951.416 16471370.594 10 0 57845 52200.00000 0 10213294.929 18629715.325 14036754.557 10 0 57845 53100.00000 0 10724058.472 20126454.746 11328064.357 10 0 57845 54000.00000 0 11243402.413 21248564.611 8398174.474 10 0 57845 54900.00000 0 11713226.426 21981643.604 5304303.203 10 0 57845 55800.00000 0 12075214.362 22324923.050 2106876.401 10 0 57845 56700.00000 0 12273508.267 22291131.652 -1131673.394 10 0 57845 57600.00000 0 12257287.480 21905803.058 -4348146.840 10 0 57845 58500.00000 0 11983141.308 21206057.504 -7479830.157 10 0 57845 59400.00000 0 11417133.066 20238911.443 -10465733.467 10 0 57845 60300.00000 0 10536466.998 19059189.316 -13247789.294 10 0 57845 61200.00000 0 9330687.264 17727128.263 -15771986.601 10 0 57845 62100.00000 0 7802358.636 16305779.156 -17989417.861 10 0 57845 63000.00000 0 5967201.006 14858315.153 -19857219.041 10 0 57845 63900.00000 0 3853673.258 13445361.958 -21339385.102 10 0 57845 64800.00000 0 1502025.180 12122461.948 -22407446.782 10 0 57845 65700.00000 0 -1037141.827 10937777.644 -23040997.527 10 0 57845 66600.00000 0 -3704744.339 9930129.066 -23228062.568 10 0 57845 67500.00000 0 -6435438.718 9127444.772 -22965305.316 10 0 57845 68400.00000 0 -9160103.157 8545688.645 -22258069.191 10 0 57845 69300.00000 0 -11808477.896 8188304.529 -21120255.855 10 0 57845 70200.00000 0 -14311855.716 8046199.326 -19574043.511 10 0 57845 71100.00000 0 -16605713.280 8098263.092 -17649451.422 10 0 57845 72000.00000 0 -18632176.526 8312402.875 -15383759.263 10 0 57845 72900.00000 0 -20342220.327 8647046.159 -12820792.129 10 0 57845 73800.00000 0 -21697513.463 9053050.823 -10010084.107 10 0 57845 74700.00000 0 -22671834.136 9475941.992 -7005935.416 10 0 57845 75600.00000 0 -23251998.729 9858382.861 -3866379.860 10 0 57845 76500.00000 0 -23438266.000 10142776.846 -652080.926 10 0 57845 77400.00000 0 -23244200.170 10273892.880 2574823.600 10 0 57845 78300.00000 0 -22695998.319 10201404.349 5751907.641 10 0 57845 79200.00000 0 -21831309.416 9882235.377 8817651.812 10 0 57845 80100.00000 0 -20697593.208 9282615.597 11712625.184 10 0 57845 81000.00000 0 -19350086.253 8379756.213 14380631.697 10 0 57845 81900.00000 0 -17849458.832 7163075.270 16769799.488 10 0 57845 82800.00000 0 -16259259.594 5634918.445 18833592.026 10 0 57845 83700.00000 0 -14643253.952 3810742.278 20531721.258 10 0 57845 84600.00000 0 -13062767.107 1718748.847 21830944.541 10 0 57845 85500.00000 0 -11574142.928 -601016.147 22705728.921 10 0 57846 0.00000 0 -10226425.477 -3098067.518 23138768.779 10 0 57846 900.00000 0 -9059361.425 -5713331.646 23121345.298 10 0 57846 1800.00000 0 -8101807.519 -8381368.806 22653519.224 10 0 57846 2700.00000 0 -7370612.913 -11032876.783 21744151.319 10 0 57846 3600.00000 0 -6870022.867 -13597371.606 20410748.570 10 0 57846 4500.00000 0 -6591631.614 -16005933.739 18679137.435 10 0 57846 5400.00000 0 -6514886.640 -18193904.458 16582969.303 10 0 57846 6300.00000 0 -6608123.716 -20103418.483 14163066.892 10 0 57846 7200.00000 0 -6830088.764 -21685665.302 11466624.043 10 0 57846 8100.00000 0 -7131881.306 -22902782.878 8546274.786 10 0 57846 9000.00000 0 -7459235.669 -23729302.974 5459050.686 10 0 57846 9900.00000 0 -7755041.230 -24153086.491 2265248.351 10 0 57846 10800.00000 0 -7961992.377 -24175709.396 -972768.915 10 0 57846 11700.00000 0 -8025253.224 -23812283.636 -4191809.764 10 0 57846 12600.00000 0 -7895021.632 -23090722.047 -7329107.228 10 0 57846 13500.00000 0 -7528881.769 -22050480.352 -10323558.407 10 0 57846 14400.00000 0 -6893844.046 -20740831.814 -13116925.515 10 0 57846 15300.00000 0 -5967985.320 -19218749.939 -15654973.612 10 0 57846 16200.00000 0 -4741619.943 -17546490.916 -17888522.372 10 0 57846 17100.00000 0 -3217952.760 -15788979.497 -19774391.677 10 0 57846 18000.00000 0 -1413187.558 -14011109.510 -21276223.498 10 0 57846 18900.00000 0 643912.372 -12275072.681 -22365165.678 10 0 57846 19800.00000 0 2912992.027 -10637827.173 -23020406.356 10 0 57846 20700.00000 0 5343559.325 -9148810.392 -23229550.872 10 0 57846 21600.00000 0 7876865.428 -7847989.472 -22988836.200 10 0 57846 22500.00000 0 10448132.517 -6764328.158 -22303180.860 10 0 57846 23400.00000 0 12989036.981 -5914731.143 -21186071.145 10 0 57846 24300.00000 0 15430346.166 -5303506.962 -19659287.185 10 0 57846 25200.00000 0 17704601.028 -4922369.197 -17752474.889 10 0 57846 26100.00000 0 19748735.384 -4750973.828 -15502572.231 10 0 57846 27000.00000 0 21506525.328 -4757968.740 -12953100.621 10 0 57846 27900.00000 0 22930769.345 -4902510.675 -10153334.145 10 0 57846 28800.00000 0 23985110.356 -5136186.020 -7157361.604 10 0 57846 29700.00000 0 24645425.508 -5405255.300 -4023058.010 10 0 57846 30600.00000 0 24900726.789 -5653128.033 -810983.765 10 0 57846 31500.00000 0 24753535.281 -5822964.986 2416768.609 10 0 57846 32400.00000 0 24219713.211 -5860299.396 5597759.456 10 0 57846 33300.00000 0 23327760.021 -5715567.536 8670397.031 10 0 57846 34200.00000 0 22117600.614 -5346442.385 11575120.419 10 0 57846 35100.00000 0 20638914.931 -4719871.771 14255548.240 10 0 57846 36000.00000 0 18949077.021 -3813734.096 16659571.306 10 0 57846 36900.00000 0 17110788.214 -2618040.233 18740368.122 10 0 57846 37800.00000 0 15189502.017 -1135628.604 20457323.339 10 0 57846 38700.00000 0 13250747.350 617678.812 21776830.830 10 0 57846 39600.00000 0 11357461.547 2613469.327 22672964.876 10 0 57846 40500.00000 0 9567444.578 4811668.268 23128005.314 10 0 57846 41400.00000 0 7931041.355 7161967.989 23132805.031 10 0 57846 42300.00000 0 6489150.032 9605700.181 22686991.034 10 0 57846 43200.00000 0 5271640.772 12078075.473 21798993.508 10 0 57846 44100.00000 0 4296252.517 14510698.172 20485900.547 10 0 57846 45000.00000 0 3568015.306 16834251.525 18773139.843 10 0 57846 45900.00000 0 3079223.265 18981241.014 16693992.228 10 0 57846 46800.00000 0 2809959.960 20888679.890 14288945.640 10 0 57846 47700.00000 0 2729153.814 22500602.940 11604901.770 10 0 57846 48600.00000 0 2796118.292 23770301.350 8694251.121 10 0 57846 49500.00000 0 2962510.247 24662183.181 5613835.324 10 0 57846 50400.00000 0 3174621.520 25153179.871 2423818.463 10 0 57846 51300.00000 0 3375904.190 25233638.875 -813508.655 10 0 57846 52200.00000 0 3509619.698 24907664.850 -4034965.841 10 0 57846 53100.00000 0 3521496.833 24192895.814 -7177735.908 10 0 57846 54000.00000 0 3362283.487 23119725.279 -10180605.626 10 0 57846 54900.00000 0 2990082.159 21730005.247 -12985169.254 10 0 57846 55800.00000 0 2372369.106 20075287.181 -15536969.926 10 0 57846 56700.00000 0 1487611.288 18214677.407 -17786556.122 10 0 57846 57600.00000 0 326413.023 16212399.281 -19690432.888 10 0 57846 58500.00000 0 -1107855.173 14135166.060 -21211890.111 10 0 57846 59400.00000 0 -2798970.856 12049475.421 -22321693.335 10 0 57846 60300.00000 0 -4718319.399 10018938.704 -22998625.686 10 0 57846 61200.00000 0 -6825878.754 8101755.539 -23229872.604 10 0 57846 62100.00000 0 -9071687.214 6348437.387 -23011244.265 10 0 57846 63000.00000 0 -11397732.729 4799872.333 -22347233.557 10 0 57846 63900.00000 0 -13740185.171 3485808.913 -21250910.261 10 0 57846 64800.00000 0 -16031879.655 2423818.965 -19743654.891 10 0 57846 65700.00000 0 -18204949.051 1618779.745 -17854738.070 10 0 57846 66600.00000 0 -20193498.069 1062894.303 -15620753.828 10 0 57846 67500.00000 0 -21936209.858 736247.177 -13084917.397 10 0 57846 68400.00000 0 -23378778.878 607870.823 -10296240.237 10 0 57846 69300.00000 0 -24476070.669 637277.474 -7308597.045 10 0 57846 70200.00000 0 -25193920.239 776392.254 -4179701.351 10 0 57846 71100.00000 0 -25510495.144 971806.936 -970007.852 10 0 57846 72000.00000 0 -25417166.868 1167260.554 2258438.765 10 0 57846 72900.00000 0 -24918853.956 1306243.545 5443187.758 10 0 57846 73800.00000 0 -24033821.808 1334616.699 8522577.429 10 0 57846 74700.00000 0 -22792946.172 1203135.204 11436919.205 10 0 57846 75600.00000 0 -21238469.469 869771.546 14129648.581 10 0 57846 76500.00000 0 -19422300.014 301738.816 16548421.085 10 0 57846 77400.00000 0 -17403923.306 -522871.994 18646132.083 10 0 57846 78300.00000 0 -15248010.867 -1613911.620 20381840.486 10 0 57846 79200.00000 0 -13021825.032 -2968501.295 21721577.927 10 0 57846 80100.00000 0 -10792527.027 -4570901.885 22639026.812 10 0 57846 81000.00000 0 -8624500.220 -6392932.206 23116052.966 10 0 57846 81900.00000 0 -6576800.246 -8394922.328 23143081.140 10 0 57846 82800.00000 0 -4700839.047 -10527164.909 22719304.448 10 0 57846 83700.00000 0 -3038400.444 -12731806.371 21852721.987 10 0 57846 84600.00000 0 -1620071.291 -14945100.630 20560002.161 10 0 57846 85500.00000 0 -464155.115 -17099931.928 18866172.797 10 0 57847 0.00000 0 423885.317 -19128501.354 16804142.843 10 0 57847 900.00000 0 1051432.343 -20965063.670 14414063.684 10 0 57847 1800.00000 0 1438164.840 -22548598.706 11742542.995 10 0 57847 2700.00000 0 1614979.593 -23825302.488 8841725.597 10 0 57847 3600.00000 0 1622430.454 -24750792.817 5768260.836 10 0 57847 4500.00000 0 1508752.381 -25291933.678 2582177.802 10 0 57847 5400.00000 0 1327556.845 -25428200.940 -654307.776 10 0 57847 6300.00000 0 1135298.892 -25152530.986 -3878029.495 10 0 57847 7200.00000 0 988626.107 -24471616.694 -7026122.628 10 0 57847 8100.00000 0 941724.507 -23405639.195 -10037266.302 10 0 57847 9000.00000 0 1043776.128 -21987448.338 -12852889.514 10 0 57847 9900.00000 0 1336637.524 -20261228.457 -15418316.109 10 0 57847 10800.00000 0 1852838.299 -18280707.868 -17683825.906 10 0 57847 11700.00000 0 2613984.326 -16106989.492 -19605611.454 10 0 57847 12600.00000 0 3629632.414 -13806095.413 -21146612.637 10 0 57847 13500.00000 0 4896682.726 -11446329.345 -22277214.447 10 0 57847 14400.00000 0 6399313.157 -9095567.512 -22975796.350 10 0 57847 15300.00000 0 8109456.981 -6818590.525 -23229124.808 10 0 57847 16200.00000 0 9987802.638 -4674565.923 -23032583.706 10 0 57847 17100.00000 0 11985273.129 -2714783.947 -22390240.377 10 0 57847 18000.00000 0 14044923.065 -980738.039 -21314747.775 10 0 57847 18900.00000 0 16104174.690 497373.274 -19827086.084 10 0 57847 19800.00000 0 18097300.810 1701663.918 -17956149.540 10 0 57847 20700.00000 0 19958052.646 2627057.766 -15738186.711 10 0 57847 21600.00000 0 21622325.085 3281247.882 -13216104.724 10 0 57847 22500.00000 0 23030750.324 3684121.091 -10438650.045 10 0 57847 23400.00000 0 24131113.665 3866673.086 -7459480.498 10 0 57847 24300.00000 0 24880492.438 3869459.957 -4336145.006 10 0 57847 25200.00000 0 25247029.943 3740650.946 -1128989.156 10 0 57847 26100.00000 0 25211270.965 3533763.490 2099993.753 10 0 57847 27000.00000 0 24767003.002 3305174.875 5288345.479 10 0 57847 27900.00000 0 23921567.347 3111514.213 8374337.860 10 0 57847 28800.00000 0 22695625.725 3007043.726 11298157.953 10 0 57847 29700.00000 0 21122390.457 3041139.215 14003061.135 10 0 57847 30600.00000 0 19246348.197 3255975.955 16436470.322 10 0 57847 31500.00000 0 17121528.388 3684518.200 18551000.045 10 0 57847 32400.00000 0 14809386.529 4348898.402 20305385.405 10 0 57847 33300.00000 0 12376388.669 5259256.429 21665297.346 10 0 57847 34200.00000 0 9891396.418 6413090.181 22604027.557 10 0 57847 35100.00000 0 7422960.458 7795147.936 23103028.609 10 0 57847 36000.00000 0 5036634.942 9377870.099 23152297.437 10 0 57847 36900.00000 0 2792424.892 11122364.853 22750593.120 10 0 57847 37800.00000 0 742473.629 12979879.530 21905483.033 10 0 57847 38700.00000 0 -1070912.354 14893708.156 20633214.749 10 0 57847 39600.00000 0 -2616817.386 16801456.499 18958414.611 10 0 57847 40500.00000 0 -3876783.450 18637570.174 16913617.496 10 0 57847 41400.00000 0 -4845344.413 20336019.360 14538635.980 10 0 57847 42300.00000 0 -5530004.808 21833026.250 11879780.826 10 0 57847 43200.00000 0 -5950664.445 23069718.906 8988948.147 10 0 57847 44100.00000 0 -6138514.051 23994597.895 5922591.816 10 0 57847 45000.00000 0 -6134450.246 24565709.760 2740602.625 10 0 57847 45900.00000 0 -5987079.171 24752434.027 -494882.091 10 0 57847 46800.00000 0 -5750395.998 24536807.171 -3720712.989 10 0 57847 47700.00000 0 -5481241.536 23914327.205 -6873980.934 10 0 57847 48600.00000 0 -5236646.592 22894205.253 -9893260.339 10 0 57847 49500.00000 0 -5071179.142 21499054.507 -12719817.570 10 0 57847 50400.00000 0 -5034408.611 19764031.331 -15298759.497 10 0 57847 51300.00000 0 -5168595.801 17735466.629 -17580099.227 10 0 57847 52200.00000 0 -5506706.557 15469046.984 -19519718.416 10 0 57847 53100.00000 0 -6070832.611 13027623.772 -21080208.207 10 0 57847 54000.00000 0 -6871085.229 10478743.258 -22231573.971 10 0 57847 54900.00000 0 -7905006.740 7892001.490 -22951792.129 10 0 57847 55800.00000 0 -9157523.070 5336334.182 -23227210.459 10 0 57847 56700.00000 0 -10601437.731 2877353.337 -23052786.495 10 0 57847 57600.00000 0 -12198445.407 574839.503 -22432161.577 10 0 57847 58500.00000 0 -13900621.995 -1519508.614 -21377570.974 10 0 57847 59400.00000 0 -15652328.786 -3363976.681 -19909593.265 10 0 57847 60300.00000 0 -17392451.856 -4928313.574 -18056744.607 10 0 57847 61200.00000 0 -19056884.302 -6194728.051 -15854926.045 10 0 57847 62100.00000 0 -20581149.312 -7158364.614 -13346734.239 10 0 57847 63000.00000 0 -21903056.479 -7827240.994 -10580648.069 10 0 57847 63900.00000 0 -22965282.250 -8221651.419 -7610105.746 10 0 57847 64800.00000 0 -23717768.485 -8373061.553 -4492488.765 10 0 57847 65700.00000 0 -24119840.176 -8322541.593 -1288030.743 10 0 57847 66600.00000 0 -24141954.541 -8118802.870 1941329.270 10 0 57847 67500.00000 0 -23767008.497 -7815919.637 5133128.371 10 0 57847 68400.00000 0 -22991149.216 -7470830.868 8225574.730 10 0 57847 69300.00000 0 -21824052.641 -7140726.201 11158733.745 10 0 57847 70200.00000 0 -20288656.554 -6880425.348 13875683.249 10 0 57847 71100.00000 0 -18420357.053 -6739861.028 16323615.914 10 0 57847 72000.00000 0 -16265699.630 -6761771.615 18454867.551 10 0 57847 72900.00000 0 -13880616.943 -6979701.548 20227851.216 10 0 57847 73800.00000 0 -11328284.405 -7416395.162 21607878.549 10 0 57847 74700.00000 0 -8676681.068 -8082653.612 22567851.481 10 0 57847 75600.00000 0 -5995955.833 -8976705.509 23088809.861 10 0 57847 76500.00000 0 -3355707.723 -10084120.604 23160322.931 10 0 57847 77400.00000 0 -822293.209 -11378272.999 22780715.470 10 0 57847 78300.00000 0 1543727.056 -12821337.170 21957122.530 10 0 57847 79200.00000 0 3689894.995 -14365777.270 20705369.953 10 0 57847 80100.00000 0 5573818.055 -15956268.741 19049681.398 10 0 57847 81000.00000 0 7164705.274 -17531972.402 17022216.266 10 0 57847 81900.00000 0 8444411.258 -19029065.376 14662446.487 10 0 57847 82800.00000 0 9407943.632 -20383421.583 12016383.962 10 0 57847 83700.00000 0 10063412.633 -21533327.442 9135673.836 10 0 57847 84600.00000 0 10431425.587 -22422116.395 6076572.018 10 0 57847 85500.00000 0 10543953.085 -23000608.982 2898828.347 99